Temp
5 5 5 5 6 6 6 6 7 7 8 7 8 10 9 12 14 14 15 16 17 17 16 16 16 16 16 16 16 14 15 13 12 13 16 16 16 14 13 11 13 12 14 15
5 5 5 5 6 6 6 8 7 7 7 9 9 8 10 13 13 14 15 15 16 17 16 15 16 16 16 15 15 15 15 12 12 13 15 16 14 15 15 14 12 12 12 15
5 5 5 5 5 6 6 5 8 7 7 10 12 10 10 12 13 14 15 15 16 16 16 16 15 14 14 15 15 13 15 14 12 15 15 15 12 13 13 12 12 14 15 15
5 5 5 5 5 6 6 6 8 10 9 10 11 12 12 12 13 15 15 15 16 16 15 15 15 15 14 14 14 14 14 11 12 13 14 14 13 13 13 11 11 11 14 16
5 5 5 5 5 6 6 6 8 9 11 14 14 14 14 14 14 15 14 15 15 16 16 16 15 15 15 15 14 14 13 12 11 11 13 14 13 14 13 12 12 11 11 12
5 5 5 5 5 6 6 6 7 7 9 13 14 14 14 14 14 14 15 15 15 15 15 15 15 15 15 15 15 13 12 10 10 13 15 15 14 14 12 12 12 12 12 13
5 5 5 5 5 5 5 5 6 9 10 13 14 14 14 14 14 14 13 14 14 14 15 14 13 13 14 13 13 13 12 10 10 11 13 15 17 16 15 13 14 15 15 15
4 4 4 4 4 5 5 4 5 7 12 14 14 14 14 14 14 13 13 13 13 14 14 14 13 12 12 13 12 12 14 13 11 12 13 16 17 17 14 13 15 16 13 14
4 4 4 4 4 4 6 5 5 5 8 14 15 14 14 14 14 14 14 12 13 13 13 12 12 13 16 14 12 13 14 13 11 13 13 15 18 17 15 13 16 16 14 13
4 4 4 4 4 4 5 5 5 5 7 12 13 14 14 15 15 12 11 11 11 11 12 12 12 12 15 15 15 13 12 11 11 12 12 15 19 17 15 16 16 15 14 14
4 4 4 4 4 4 4 5 5 5 5 7 11 14 14 14 14 13 12 12 11 11 11 11 11 12 15 15 17 15 14 13 13 12 12 14 18 17 16 17 17 15 15 12
4 4 4 4 4 4 4 5 5 4 4 6 7 9 11 12 15 15 12 13 13 13 11 11 11 12 15 16 16 16 16 18 18 17 18 20 19 17 17 16 15 15 14 13
4 4 4 4 4 4 4 4 4 4 4 7 8 12 12 11 11 12 14 12 12 13 12 11 11 12 12 13 16 17 17 17 16 17 19 19 19 18 16 14 13 13 13 13
3 4 4 4 3 3 3 4 4 4 3 6 10 10 11 9 10 11 12 13 11 11 10 10 10 11 14 14 15 15 17 15 17 17 19 19 17 16 14 12 12 12 12 12
3 3 3 4 3 3 3 4 4 4 5 6 8 10 8 8 10 11 11 13 13 11 10 10 11 11 13 15 14 15 17 17 17 18 18 18 17 14 13 12 11 11 10 10
3 3 3 3 3 3 3 5 4 4 4 5 9 10 9 9 9 10 11 12 11 10 10 10 11 12 12 12 14 18 19 19 19 19 16 15 14 12 12 11 10 10 9 8
3 3 3 3 3 3 3 4 3 3 3 5 8 10 10 9 10 10 9 10 10 10 10 10 11 11 10 12 13 18 18 18 17 16 15 14 13 13 11 10 9 9 9 8
3 3 2 2 3 3 3 4 3 3 3 5 8 10 10 9 10 11 10 10 10 10 10 10 10 10 11 12 14 16 17 17 16 15 14 13 12 11 10 9 8 8 8 7
2 3 4 3 4 5 4 3 3 3 4 6 8 9 10 9 11 11 10 11 11 11 11 11 10 11 11 14 15 16 17 15 15 12 11 11 11 10 9 9 9 8 8 7
2 3 4 4 4 3 3 3 4 4 5 5 9 11 10 11 11 12 12 11 11 11 12 10 10 11 14 15 16 16 15 15 11 9 7 6 6 7 9 9 10 9 8 7
3 3 3 3 3 3 4 5 5 6 7 8 10 12 12 11 11 12 11 10 9 11 11 11 12 13 15 13 12 12 12 14 12 13 13 10 11 10 9 10 10 8 7 6
2 1 1 2 2 3 5 6 5 7 8 9 10 11 12 10 10 11 10 10 9 10 10 10 11 13 11 11 10 9 9 12 12 11 11 11 11 10 10 9 8 7 6 4
2 3 2 3 5 6 7 8 7 7 6 5 6 8 10 9 9 9 10 9 10 9 9 10 12 12 11 9 8 8 8 10 10 9 9 10 9 9 8 7 7 5 4 3
3 2 5 5 6 6 5 5 5 5 4 5 6 7 8 8 9 10 9 10 9 9 9 10 11 10 8 8 7 7 8 8 8 7 7 6 6 6 6 5 4 4 3 3
3 2 5 5 4 4 4 3 4 3 4 4 6 6 8 7 8 9 9 8 9 10 11 11 9 7 7 7 7 7 7 6 6 5 5 5 4 5 3 3 3 3 2 2
2 2 3 4 3 4 4 4 4 4 4 4 4 6 8 8 9 8 9 9 9 11 7 7 6 6 6 6 6 6 6 6 6 5 5 4 4 4 3 3 2 2 2 1
2 3 3 4 3 3 4 5 5 5 4 6 5 7 10 6 8 8 9 8 7 5 4 5 4 3 4 4 4 4 4 5 5 4 4 4 3 2 3 2 1 0 0 -0
Height
764 757 751 743 735 725 718 718 717 721 722 726 723 714 716 706 701 702 701 698 698 702 709 713 714 716 721 723 727 738 738 745 748 739 731 731 734 742 746 751 731 733 721 687
764 757 750 741 732 723 718 718 722 723 725 719 717 722 714 703 711 707 704 706 702 701 707 717 714 717 723 727 729 731 737 748 745 732 728 725 732 728 727 730 736 723 723 685
764 757 750 741 731 721 717 725 721 726 726 716 706 716 714 710 710 706 704 706 705 707 710 713 716 723 728 728 729 735 732 736 741 725 720 723 738 730 726 734 724 703 691 682
765 758 750 742 731 721 720 723 719 718 719 716 713 710 711 712 710 707 705 708 706 706 712 716 719 720 726 730 731 735 738 746 739 730 724 723 721 718 715 725 716 713 675 681
767 761 752 744 735 725 723 726 724 719 713 706 704 707 706 708 711 708 709 706 708 710 710 712 718 718 722 723 730 734 736 739 742 737 720 715 713 702 703 703 702 701 698 684
766 762 755 748 741 733 731 731 730 729 725 709 706 706 708 709 710 714 711 711 711 714 716 717 719 719 720 721 723 730 737 745 745 718 704 704 701 697 699 699 695 693 685 675
769 763 759 751 746 743 740 738 736 727 725 711 709 710 711 712 712 713 717 716 714 720 719 720 721 722 722 725 728 730 733 746 745 727 715 698 680 682 686 690 681 675 670 665
772 765 760 756 749 744 742 742 739 733 715 709 711 712 712 711 714 717 718 721 721 722 721 719 718 723 726 716 722 727 726 730 735 726 714 690 679 676 685 689 677 672 674 665
770 770 763 758 754 748 743 740 738 737 730 711 708 710 712 711 711 716 717 724 724 724 723 724 724 714 701 710 721 722 720 724 734 723 720 702 671 676 682 686 672 670 669 666
766 765 764 759 755 749 745 742 740 738 733 716 713 710 709 710 710 720 724 725 726 727 723 723 722 718 705 704 702 717 724 727 727 726 722 695 668 675 678 674 676 672 673 669
766 764 762 759 756 752 748 743 740 739 737 727 719 713 711 713 712 715 721 724 725 726 728 729 725 719 703 703 692 702 706 713 714 718 718 702 672 672 677 673 670 672 671 674
764 762 761 758 755 752 749 746 743 741 741 730 723 718 716 715 711 712 718 717 718 720 727 728 726 721 706 698 695 691 697 684 683 687 676 665 668 672 669 671 673 671 674 674
762 760 759 756 753 751 750 746 743 741 738 726 720 712 713 714 714 715 714 718 719 719 722 726 724 719 715 707 693 688 685 683 686 684 665 666 664 666 671 675 674 674 676 676
757 756 755 753 751 748 747 744 743 742 741 730 713 712 712 713 713 714 714 715 719 722 724 725 724 722 707 699 694 692 684 687 681 677 667 662 668 672 675 678 678 677 678 680
753 752 751 748 746 744 741 738 737 737 739 726 716 712 712 712 713 714 715 715 717 720 723 722 718 715 710 698 698 687 678 675 678 670 667 669 671 677 678 678 681 683 684 687
747 746 745 742 741 741 739 731 729 731 735 731 715 710 711 712 713 713 714 715 718 720 718 718 713 708 710 700 685 667 663 663 665 666 671 674 678 681 681 682 685 687 689 694
742 739 737 733 733 735 736 731 731 732 733 729 717 707 710 711 712 714 716 717 717 717 717 715 711 707 707 696 683 665 662 663 666 670 674 676 679 678 685 687 689 693 695 698
737 732 728 724 724 728 731 731 730 731 729 726 715 706 707 711 710 710 713 713 715 714 711 709 708 704 699 687 670 666 663 663 667 670 674 677 679 684 688 692 694 696 700 705
732 728 725 725 725 725 726 728 728 728 730 721 710 708 704 709 706 708 712 710 707 707 705 703 704 692 687 666 666 662 660 665 665 672 677 680 681 685 689 692 695 697 702 708
729 728 726 726 726 726 726 728 725 725 722 721 708 702 703 705 702 702 704 707 705 703 696 702 698 683 665 659 660 661 662 665 673 678 685 686 687 688 688 690 694 698 703 709
732 730 729 728 725 725 724 720 719 717 714 709 703 698 697 705 702 698 705 707 711 702 698 698 684 670 657 662 663 665 665 664 669 668 669 674 675 680 685 689 694 699 705 710
736 735 732 729 727 724 719 713 715 708 705 705 700 701 700 705 707 702 708 708 711 702 705 703 689 664 665 668 668 668 667 663 665 668 668 670 673 677 683 688 695 701 706 713
735 734 732 728 723 714 706 705 711 707 715 716 713 708 706 708 708 708 708 708 706 708 706 693 674 665 668 671 671 669 668 666 667 670 670 671 675 679 684 689 696 702 709 715
734 733 723 720 715 716 717 717 718 720 721 718 716 711 709 710 709 706 708 708 709 706 704 688 676 678 679 676 674 672 670 670 672 673 674 676 679 684 688 692 696 702 708 715
732 733 719 720 721 722 722 723 722 722 720 719 715 714 710 713 712 708 711 711 706 697 685 682 688 688 685 681 679 677 675 674 676 678 679 681 683 687 692 697 700 705 710 716
732 732 727 725 726 722 721 722 721 721 720 719 718 713 710 708 706 710 706 705 697 687 701 699 696 693 689 686 684 682 681 679 678 679 682 684 686 689 694 700 704 709 713 718
729 724 723 721 727 725 723 722 721 722 721 714 716 708 697 715 706 706 699 698 700 708 706 703 701 698 694 690 688 686 685 684 683 682 683 686 689 693 696 701 707 712 716 721
Wind_Speed
28 28 29 29 31 34 10 2 2 8 8 1 2 0 1 8 10 3 3 4 4 15 18 11 12 9 3 7 10 11 9 2 5 12 12 12 14 15 17 8 8 8 13 21
29 30 30 32 34 32 7 2 1 3 3 2 2 1 2 4 9 6 5 4 2 6 12 6 7 6 6 9 12 11 10 4 3 3 2 8 11 18 17 18 15 21 14 14
28 29 30 32 36 26 4 3 3 2 2 4 6 3 3 5 2 5 4 8 8 10 10 3 9 6 4 10 11 9 7 5 8 8 8 11 8 15 17 15 10 19 22 29
27 29 31 33 38 24 4 2 2 1 3 2 4 5 8 6 3 2 2 4 3 5 4 5 4 6 5 5 8 6 5 5 9 18 22 20 20 23 23 19 18 16 28 23
27 28 30 34 37 21 6 3 3 4 1 7 6 1 7 7 5 2 2 2 6 4 4 1 5 6 7 6 9 11 4 4 2 14 20 21 18 23 18 18 18 15 24 29
25 27 29 31 33 25 6 6 3 3 3 6 5 2 5 4 5 3 4 2 5 4 3 3 3 2 3 1 3 10 3 1 2 6 11 20 9 5 6 7 10 11 12 19
24 24 26 27 28 27 7 7 3 3 2 4 3 3 1 5 4 5 3 2 2 6 4 1 2 4 8 7 8 6 5 4 2 6 13 3 6 2 6 10 15 12 16 18
24 22 23 24 25 26 11 9 3 2 3 4 4 6 4 5 4 4 4 3 4 4 3 2 3 1 2 8 11 12 13 5 2 3 6 17 6 3 2 3 8 9 12 13
20 23 22 23 23 23 15 11 14 2 3 5 1 5 4 3 3 3 3 4 3 1 1 1 2 2 1 4 3 1 10 10 4 2 4 5 5 6 3 2 2 14 9 7
17 19 21 20 22 23 18 4 14 2 2 2 5 5 5 3 4 3 2 1 1 1 3 2 2 3 2 3 5 5 4 2 8 7 4 10 7 4 1 4 7 10 5 2
16 18 20 19 18 20 18 10 8 5 3 7 5 9 4 2 5 3 4 3 1 2 1 1 2 2 1 3 2 5 8 6 4 4 4 6 2 2 4 6 7 5 3 2
15 16 18 20 17 16 15 6 10 6 2 4 9 17 12 7 6 1 3 3 2 1 2 3 1 2 3 4 3 4 5 7 2 6 3 5 7 8 9 6 8 6 4 3
16 17 18 18 18 15 14 11 10 5 3 4 3 6 6 5 3 1 3 2 1 3 2 1 1 5 1 3 6 4 6 5 4 4 3 6 9 5 2 5 5 3 1 5
17 18 20 19 18 17 15 13 10 8 2 3 0 1 2 2 4 3 1 4 5 3 1 2 2 3 4 3 4 5 3 4 4 9 14 9 4 5 3 3 3 5 6 6
18 20 21 21 19 18 19 17 15 15 4 2 3 5 1 1 2 6 4 5 4 2 2 3 3 2 4 6 4 9 8 8 6 6 5 5 5 4 2 5 6 6 9 9
20 22 24 22 19 17 12 3 2 8 13 2 2 2 2 2 3 3 3 3 2 2 2 2 2 4 2 3 5 11 11 14 12 9 3 3 2 3 3 7 8 9 11 11
23 26 28 26 21 15 7 1 4 4 7 2 2 1 2 3 3 2 1 3 1 1 2 3 2 2 2 3 9 6 4 5 7 4 3 3 6 2 6 9 11 13 13 13
27 30 24 14 5 4 8 13 12 7 4 2 2 1 3 5 2 3 3 2 2 3 2 2 3 2 2 5 12 13 14 13 5 6 5 2 8 9 10 10 12 14 13 12
28 20 2 2 1 3 2 5 1 6 3 2 1 3 2 3 2 1 2 2 3 2 2 3 1 3 6 10 7 7 6 6 5 5 5 6 9 10 12 12 12 14 13 12
17 6 3 1 3 10 1 3 3 4 3 3 2 2 2 4 2 3 2 2 2 2 1 2 3 5 14 15 13 8 5 4 8 6 3 2 3 9 12 13 11 12 13 12
5 4 2 5 8 1 2 2 3 3 2 3 2 3 1 2 2 2 1 1 0 2 0 2 2 4 3 4 6 5 5 9 11 7 3 11 10 13 13 12 11 11 14 12
6 9 6 3 2 2 3 2 1 3 1 1 1 2 1 2 1 1 1 1 1 3 2 2 3 4 3 5 8 8 7 7 9 7 5 8 9 12 12 12 12 14 17 19
2 2 2 2 2 1 1 1 1 1 4 4 3 0 1 2 1 1 1 2 2 1 2 3 4 4 5 5 5 6 4 2 5 4 4 6 8 14 15 14 18 21 20 19
1 2 2 2 1 1 1 1 1 1 1 4 3 1 0 1 1 0 1 1 2 2 3 4 3 7 9 8 5 5 2 2 3 5 7 9 10 10 14 17 22 23 20 21
2 2 2 2 1 1 0 1 1 0 2 2 1 1 1 1 1 1 1 1 4 4 3 3 7 11 9 10 8 7 2 2 4 4 6 8 10 11 13 16 18 20 23 21
2 2 2 1 2 1 0 1 2 1 4 1 1 1 1 3 2 3 6 3 5 0 3 6 9 11 12 11 10 8 5 1 3 4 7 10 10 11 15 18 18 19 21 21
3 3 2 2 1 2 1 3 2 4 3 0 0 3 3 1 3 3 4 4 2 5 6 6 7 9 11 10 8 6 5 2 3 7 9 10 14 19 19 13 16 19 20 21
Wind_Direction
351 353 353 348 343 342 349 52 89 131 141 81 238 98 25 119 122 7 71 156 160 162 177 182 188 179 83 180 173 187 202 184 245 241 243 227 259 220 224 231 233 242 263 269
356 356 354 350 350 354 339 66 23 76 333 157 130 32 307 152 158 188 157 145 178 140 163 174 190 190 112 174 176 169 165 211 284 229 172 243 242 245 248 239 263 253 263 261
354 355 357 355 353 359 91 99 124 110 274 279 130 121 29 107 53 80 90 111 130 139 169 25 178 156 157 183 202 69 184 220 237 267 300 319 257 257 260 256 247 260 247 266
356 355 359 0 2 9 86 183 82 64 147 182 161 172 159 145 129 72 144 125 164 161 153 180 164 172 150 174 179 180 216 241 259 266 276 280 273 273 270 259 256 252 271 278
358 357 359 5 8 14 55 49 12 331 143 182 173 146 138 140 116 168 174 197 158 156 151 145 167 198 210 215 173 203 213 263 311 279 268 260 270 278 279 266 255 252 260 265
1 359 0 7 12 18 21 357 315 268 322 214 205 111 128 126 138 54 40 107 150 161 57 11 3 275 315 11 197 198 201 260 288 270 316 310 274 273 266 263 249 260 262 262
360 2 1 4 9 16 21 10 291 296 131 193 182 128 137 181 51 94 112 94 73 58 53 350 262 252 266 235 237 246 192 155 246 295 307 268 7 112 274 269 282 285 295 275
357 2 3 4 6 5 17 21 350 316 160 181 172 159 111 145 145 76 101 60 46 347 316 291 300 145 223 236 221 217 228 210 264 276 309 274 295 352 327 340 311 10 321 325
358 353 356 358 359 4 1 14 16 348 312 199 200 212 205 203 166 172 141 81 18 346 305 229 274 260 238 167 133 249 225 220 219 312 305 298 2 36 131 164 66 19 19 314
355 351 350 354 353 356 358 333 10 259 293 296 317 218 225 203 192 68 112 93 345 94 218 239 236 263 341 243 197 168 151 178 228 243 260 274 301 11 185 300 356 354 3 273
348 347 343 345 348 347 355 315 356 38 321 287 296 262 232 167 194 187 139 180 190 152 170 236 230 268 273 273 224 177 181 185 200 189 233 270 47 272 321 348 326 323 290 249
335 336 334 336 340 342 347 322 331 322 221 275 298 283 279 307 324 300 164 350 121 115 170 215 287 261 271 280 270 216 237 221 306 217 224 332 316 284 318 333 301 297 268 167
325 325 321 323 328 331 328 310 307 310 276 268 248 220 198 229 253 248 222 180 172 205 61 37 270 257 209 262 241 267 232 225 242 306 171 298 305 304 9 339 305 294 253 146
320 318 313 313 316 314 313 298 285 282 261 272 263 332 205 239 232 242 313 114 108 91 122 199 248 255 227 257 303 280 333 165 246 261 277 293 81 33 29 54 70 101 101 118
319 314 307 305 307 307 305 288 266 239 254 304 286 298 185 314 220 215 207 205 189 161 196 218 223 229 253 238 286 256 216 230 222 275 12 322 13 31 53 101 98 101 111 109
318 311 304 302 298 299 304 300 183 193 192 260 273 58 145 154 162 166 193 209 187 201 211 229 242 222 219 259 248 254 241 231 256 276 50 38 72 77 89 111 113 115 114 118
317 312 305 298 288 266 222 289 96 109 190 244 271 188 119 134 125 121 143 171 206 230 222 223 248 255 229 251 248 270 306 272 239 225 179 215 193 169 132 121 113 111 109 111
321 318 314 309 260 186 225 250 273 255 257 244 269 148 175 180 148 180 174 199 186 203 244 214 226 240 241 253 240 253 258 249 238 215 203 29 120 130 128 130 131 123 120 123
324 319 342 137 138 165 76 173 198 230 265 283 236 167 177 179 146 140 179 267 232 164 245 219 239 200 224 241 270 281 263 219 268 136 167 157 157 153 150 152 150 134 136 135
327 346 13 29 48 304 277 121 206 199 208 220 258 278 147 197 146 179 194 197 277 268 225 309 241 255 253 260 266 280 297 213 151 146 179 133 123 164 166 169 160 147 145 140
348 12 347 312 334 260 211 202 200 172 218 208 222 241 146 174 180 187 319 193 238 262 77 280 277 266 288 29 342 321 295 224 202 221 184 187 182 177 169 165 150 143 144 142
303 300 299 297 299 229 235 194 206 218 93 29 285 103 327 108 329 252 203 215 210 258 341 287 261 260 1 342 326 320 312 247 198 194 183 183 174 169 161 148 142 143 135 136
285 248 284 251 192 270 314 99 46 76 359 1 353 103 351 170 240 81 214 214 247 275 254 246 247 323 326 356 331 327 334 278 163 155 138 144 142 149 148 144 144 135 136 141
265 282 257 274 145 119 55 19 4 17 315 339 328 307 25 22 127 85 217 69 290 257 247 250 316 350 337 337 343 323 4 94 119 127 123 124 132 141 143 145 145 144 142 145
235 244 249 246 96 226 321 287 290 280 283 322 286 259 219 100 92 177 92 227 247 236 259 352 341 335 334 341 347 337 333 119 118 129 137 136 135 134 126 137 141 138 136 139
214 215 172 201 252 204 350 25 326 279 332 274 230 250 158 226 178 174 209 220 232 58 337 320 327 330 339 344 342 339 327 253 134 142 146 150 143 140 135 132 134 138 139 136
221 207 222 98 328 273 5 342 335 347 305 215 293 203 198 81 189 228 197 218 336 323 315 320 318 320 322 326 330 334 326 280 158 143 147 146 137 135 136 132 133 129 128 128